Wind_Speed
13 12 10 9 8 5 6 9 13 15 16 18 19 20 20 19 18 15 14 14 13 12 10 9 6 4 6 9 11 12 12 13 13 13 13 12 11 10 9 9 8 7 7 6
13 12 12 12 9 5 7 11 14 15 16 19 19 19 19 17 15 13 12 12 12 12 10 9 6 3 6 7 10 13 12 12 13 13 13 12 12 11 10 10 9 8 8 7
13 14 15 14 10 7 7 12 15 16 17 18 20 18 18 15 12 12 11 11 11 11 10 8 6 2 4 7 10 11 11 12 13 13 13 13 13 12 11 11 10 10 9 8
14 16 17 16 12 8 9 12 15 16 17 17 17 16 15 15 10 9 9 10 10 10 9 8 6 3 3 7 8 10 11 11 13 13 13 13 14 13 13 12 12 11 10 9
13 16 17 17 13 11 10 13 15 16 18 18 17 17 15 12 7 5 8 9 8 8 8 8 6 4 1 5 7 9 10 11 12 13 13 13 14 14 14 14 13 12 11 10
13 16 17 16 15 13 12 14 16 16 18 19 18 16 15 11 7 5 6 8 7 6 7 7 6 4 1 3 5 8 10 11 11 13 14 14 14 15 15 15 14 13 12 11
14 15 15 15 14 14 14 15 17 18 17 18 18 17 13 9 7 5 5 6 6 6 7 7 6 4 1 1 5 7 10 11 11 13 14 15 16 15 15 15 15 14 13 12
13 13 14 15 13 12 12 15 18 19 18 17 17 17 13 9 8 6 5 6 6 5 5 5 5 4 2 1 4 7 9 10 11 13 14 16 17 16 16 16 16 15 14 13
13 12 15 16 15 13 12 14 16 18 18 18 18 17 13 10 10 7 7 6 6 4 3 3 3 3 2 1 3 6 9 10 11 12 13 15 15 16 16 16 17 17 16 15
16 16 16 18 18 16 16 15 16 18 19 20 19 18 16 13 10 7 6 6 5 4 4 3 3 3 3 2 2 5 7 8 11 12 13 14 16 17 17 17 18 18 17 17
23 22 18 20 20 18 18 19 19 19 20 21 21 19 18 16 11 8 7 5 5 5 4 4 3 3 4 3 2 4 6 8 10 11 13 14 16 17 18 18 19 19 19 19
27 26 24 23 22 22 22 21 21 22 22 23 22 19 19 16 13 10 9 7 6 5 4 4 4 4 4 4 3 4 5 8 11 12 14 15 17 18 19 19 20 20 21 21
30 30 29 26 25 25 25 24 22 23 22 22 21 20 19 17 14 12 11 8 6 5 5 5 6 6 6 6 6 6 7 8 10 13 14 16 17 18 19 20 21 21 22 22
35 35 34 32 28 26 27 27 25 24 22 22 20 19 19 18 15 12 10 9 8 6 6 6 7 8 8 9 9 9 10 10 11 12 13 15 17 18 19 21 22 24 24 24
41 40 37 35 32 31 30 28 27 25 23 22 20 20 20 18 14 12 10 9 9 7 8 8 8 9 9 10 10 10 11 12 13 14 14 15 18 19 21 22 24 25 26 26
45 44 41 39 35 33 33 31 29 27 25 22 21 21 19 16 13 12 12 10 10 9 8 9 9 9 10 11 12 12 13 14 15 17 17 19 20 22 23 24 25 26 26 27
47 46 44 42 39 37 36 32 29 28 26 23 21 20 19 17 14 13 14 13 11 11 10 10 10 11 11 12 14 14 15 17 18 18 20 20 22 23 24 25 25 25 25 27
45 46 46 43 39 40 35 31 30 28 27 25 23 22 20 17 16 15 14 13 12 13 12 11 12 13 13 14 15 16 17 19 20 21 21 22 21 23 24 24 25 26 26 27
39 42 43 42 40 40 37 34 30 28 27 25 25 23 21 18 16 16 16 14 14 14 14 14 14 15 15 16 17 17 19 20 21 23 23 23 24 25 25 26 26 27 27 29
37 38 41 42 41 40 36 33 30 28 28 26 24 21 18 18 18 17 17 16 15 15 15 16 16 18 18 19 19 19 21 22 23 23 23 25 26 27 27 27 27 28 28 28
34 35 36 38 40 39 35 34 32 30 27 26 24 23 21 19 19 19 19 17 16 16 16 17 18 19 20 21 21 22 23 24 24 25 26 27 27 27 28 28 28 28 28 29
28 32 34 34 36 37 35 33 32 30 27 26 24 22 20 20 19 19 19 17 17 17 17 19 20 21 21 22 24 24 25 25 26 27 27 28 28 29 30 30 29 29 29 29
26 28 29 29 30 31 32 31 30 28 26 25 22 22 21 21 21 19 18 17 16 17 19 20 21 22 23 24 25 26 27 28 28 29 29 30 30 30 30 31 31 32 32 32
19 21 24 26 27 27 25 26 27 27 23 22 22 21 20 20 18 18 18 18 18 19 20 21 22 23 24 26 27 28 29 30 30 31 31 31 32 32 32 32 32 33 33 34
13 16 19 22 24 24 22 21 22 22 21 20 20 18 18 18 17 16 17 17 18 19 20 22 23 25 26 27 28 29 30 31 32 33 33 33 33 34 34 34 34 34 34 35
11 11 12 14 15 16 16 17 17 18 18 16 16 16 16 15 15 16 17 17 18 20 21 23 24 25 26 27 29 30 31 31 32 33 33 34 34 35 35 36 36 36 37 38
Wind_Direction
253 250 249 247 253 276 312 323 321 322 321 325 329 331 331 331 334 339 345 353 354 355 348 342 328 272 233 221 212 208 203 201 200 197 194 194 195 198 201 198 194 189 182 171
249 243 237 237 241 267 305 312 309 312 318 319 320 322 325 327 333 341 348 351 358 357 1 355 348 262 218 220 204 199 199 200 198 196 195 194 198 201 201 195 192 187 180 172
247 235 235 235 241 259 293 301 298 302 308 311 312 315 320 326 331 339 343 349 355 355 359 358 354 302 215 199 191 193 193 193 192 194 195 198 198 200 198 194 193 189 183 178
241 238 240 242 246 255 279 288 291 295 298 304 311 318 320 323 325 342 352 351 353 356 3 5 1 5 186 180 184 195 194 195 197 200 199 199 199 199 198 196 194 191 187 184
239 239 243 248 246 249 263 279 286 290 295 303 309 315 321 324 323 353 9 1 354 354 3 6 3 6 176 181 190 198 202 204 202 201 199 199 199 199 200 200 197 193 191 190
239 242 247 250 245 243 255 272 280 289 296 304 312 315 322 319 328 351 7 10 4 360 7 7 6 13 45 184 199 204 205 206 203 202 202 200 199 200 200 199 196 198 198 199
240 243 247 249 249 250 257 268 279 285 292 303 313 321 330 327 327 343 1 10 6 2 2 4 7 8 9 202 208 210 209 208 208 207 206 203 204 205 205 206 205 206 206 209
246 241 241 241 246 253 254 264 277 287 294 303 311 320 327 323 324 328 350 2 360 358 355 355 360 6 349 300 218 206 205 206 206 208 210 209 208 209 211 211 211 214 216 220
256 240 235 238 238 246 250 264 274 283 291 295 303 314 320 316 323 329 338 345 353 358 357 352 354 355 349 317 231 210 209 210 210 208 207 208 207 210 211 214 218 221 223 228
262 248 234 244 244 248 256 267 272 279 288 290 295 302 319 320 318 325 324 335 344 354 340 328 331 327 324 314 255 218 214 208 206 207 211 212 212 213 216 219 224 225 227 233
248 250 240 242 247 250 255 263 270 278 284 286 291 297 309 314 315 318 318 325 335 331 324 306 302 319 318 306 269 219 219 216 212 213 217 218 221 221 221 225 228 229 233 237
243 247 248 245 247 252 257 261 267 274 278 282 284 290 299 306 306 310 320 320 317 310 302 300 299 301 305 292 266 244 231 225 224 225 225 226 230 230 229 232 234 236 239 241
240 244 247 245 243 247 253 259 267 274 278 282 281 288 291 296 300 309 315 319 313 299 284 285 289 289 289 278 267 259 245 239 238 236 234 233 233 235 235 236 239 241 243 245
241 243 245 245 245 249 253 257 263 269 275 278 278 281 286 289 292 298 301 305 307 301 283 275 274 280 280 275 267 265 251 247 243 240 239 239 238 240 242 242 244 246 246 248
241 242 244 246 247 248 253 256 260 264 270 273 275 274 279 282 289 298 296 290 293 296 290 279 273 271 275 278 275 272 261 253 248 245 245 247 247 246 248 248 249 250 250 252
241 242 244 246 248 249 252 253 257 261 266 270 271 273 277 276 281 295 295 288 291 297 294 284 278 272 274 275 277 278 271 267 266 263 257 256 257 255 254 255 255 255 255 254
240 242 244 246 245 249 249 251 255 259 262 266 271 275 271 272 281 290 292 291 298 300 296 294 289 281 280 280 276 272 272 273 274 271 263 266 264 263 266 264 260 263 263 259
240 241 244 246 244 244 247 250 252 254 256 262 265 268 267 267 276 287 291 290 291 297 295 295 290 286 283 282 280 276 278 275 274 274 274 274 270 273 272 274 271 267 267 266
239 238 239 240 241 244 246 249 250 252 254 256 261 264 264 263 272 282 286 287 286 290 289 291 289 285 284 282 281 279 280 281 281 282 278 278 277 281 281 277 277 275 271 268
238 237 237 236 239 241 244 245 248 251 255 259 262 262 264 268 271 279 278 278 278 281 282 284 285 285 285 284 284 281 281 281 282 284 283 282 283 283 281 279 279 279 276 275
237 236 236 237 239 241 242 244 247 252 259 261 260 261 262 265 270 275 274 268 270 275 278 281 282 283 283 284 285 286 285 282 284 285 286 286 285 285 283 282 282 282 278 276
235 235 234 237 238 239 241 243 246 250 250 254 255 255 260 264 269 271 269 264 267 270 275 278 280 281 283 284 286 286 288 288 288 287 286 286 287 288 287 286 285 284 282 280
236 236 236 240 240 240 241 243 245 247 251 250 249 256 258 263 267 265 262 260 265 271 274 276 279 280 282 284 285 285 286 287 288 288 288 287 287 289 290 289 288 286 284 281
234 237 237 237 240 241 242 242 241 240 244 248 248 254 259 257 259 261 262 263 266 269 273 275 277 279 281 283 284 285 285 286 287 287 287 288 287 288 288 290 289 286 285 284
233 232 235 236 237 243 244 238 238 238 241 248 250 256 256 255 259 262 264 267 269 270 273 276 278 280 282 283 284 285 286 286 286 287 287 288 288 288 288 288 288 287 286 286
229 228 232 233 234 233 228 230 231 233 240 245 252 257 257 258 263 268 270 271 273 273 275 277 280 281 282 284 285 286 287 287 287 286 287 287 288 288 288 288 288 288 287 287
Height
5885 5886 5885 5885 5884 5883 5882 5881 5880 5879 5877 5875 5872 5870 5868 5864 5861 5858 5855 5852 5850 5847 5844 5841 5840 5840 5841 5842 5844 5848 5851 5854 5857 5860 5862 5864 5866 5868 5869 5871 5872 5873 5874 5875
5882 5882 5882 5881 5880 5880 5879 5879 5879 5878 5875 5873 5871 5869 5867 5863 5860 5858 5855 5851 5849 5846 5843 5841 5840 5839 5840 5841 5844 5847 5850 5852 5855 5857 5859 5861 5864 5866 5868 5869 5871 5872 5873 5874
5877 5879 5877 5877 5877 5876 5877 5878 5877 5876 5874 5872 5870 5868 5865 5862 5859 5857 5854 5851 5848 5846 5844 5842 5841 5840 5840 5841 5842 5845 5848 5850 5852 5855 5857 5860 5862 5864 5866 5868 5870 5871 5872 5873
5873 5874 5873 5873 5873 5873 5874 5875 5874 5873 5872 5870 5869 5866 5864 5860 5857 5855 5852 5850 5848 5846 5844 5842 5841 5839 5840 5840 5842 5844 5846 5849 5851 5853 5855 5857 5860 5862 5864 5867 5868 5870 5871 5872
5869 5870 5869 5870 5870 5870 5870 5871 5871 5870 5869 5867 5866 5864 5862 5858 5856 5853 5851 5849 5847 5846 5844 5842 5841 5839 5839 5840 5841 5843 5844 5847 5849 5851 5853 5856 5858 5861 5863 5865 5867 5868 5870 5871
5865 5865 5866 5867 5867 5867 5867 5867 5867 5867 5866 5865 5863 5861 5859 5857 5854 5852 5850 5848 5847 5846 5844 5842 5841 5839 5838 5839 5840 5841 5843 5845 5847 5849 5852 5854 5856 5859 5861 5863 5865 5867 5868 5869
5861 5861 5862 5863 5864 5864 5864 5864 5864 5863 5863 5862 5860 5858 5857 5854 5853 5851 5849 5847 5845 5844 5843 5842 5841 5839 5838 5838 5839 5840 5842 5844 5846 5847 5849 5852 5854 5857 5859 5861 5863 5864 5866 5867
5856 5858 5859 5859 5860 5861 5861 5861 5861 5860 5859 5858 5856 5855 5854 5852 5850 5849 5847 5845 5844 5843 5842 5841 5840 5839 5838 5838 5838 5839 5840 5842 5843 5845 5847 5850 5852 5854 5857 5859 5861 5862 5864 5865
5852 5855 5856 5856 5856 5856 5856 5857 5857 5856 5855 5854 5853 5852 5851 5849 5848 5847 5845 5844 5842 5841 5841 5840 5840 5839 5838 5837 5837 5838 5839 5840 5842 5843 5845 5847 5850 5852 5854 5856 5858 5860 5861 5862
5847 5849 5851 5852 5852 5852 5852 5853 5853 5853 5852 5850 5850 5849 5849 5847 5846 5845 5844 5843 5841 5840 5840 5839 5839 5838 5838 5837 5836 5836 5837 5838 5840 5842 5844 5846 5848 5849 5851 5853 5855 5856 5857 5858
5839 5841 5845 5847 5847 5848 5849 5849 5849 5849 5848 5847 5846 5848 5846 5845 5844 5843 5842 5841 5840 5839 5838 5837 5837 5837 5836 5835 5835 5835 5836 5837 5838 5840 5841 5843 5845 5846 5848 5849 5851 5851 5852 5853
5833 5835 5837 5840 5842 5843 5843 5844 5845 5845 5844 5843 5843 5845 5842 5841 5841 5841 5840 5839 5838 5837 5836 5836 5836 5835 5835 5834 5834 5834 5834 5834 5836 5837 5838 5840 5841 5842 5844 5845 5847 5847 5848 5849
5827 5829 5831 5833 5837 5838 5838 5839 5840 5840 5839 5838 5838 5841 5838 5837 5837 5837 5837 5836 5836 5835 5835 5834 5833 5833 5833 5832 5832 5831 5831 5832 5833 5834 5835 5836 5837 5838 5839 5840 5842 5842 5843 5843
5821 5822 5825 5827 5829 5831 5832 5834 5834 5835 5835 5834 5834 5834 5833 5832 5832 5833 5833 5833 5833 5833 5832 5831 5831 5830 5830 5829 5829 5829 5829 5829 5830 5830 5831 5832 5833 5834 5834 5835 5836 5836 5836 5837
5814 5815 5817 5820 5823 5824 5826 5828 5829 5830 5830 5829 5829 5829 5829 5829 5829 5829 5829 5829 5829 5828 5828 5828 5827 5827 5827 5826 5826 5827 5827 5826 5826 5826 5827 5828 5828 5828 5829 5829 5829 5829 5830 5829
5805 5807 5810 5812 5816 5818 5819 5822 5823 5824 5824 5823 5824 5824 5825 5825 5825 5825 5825 5825 5825 5824 5824 5824 5824 5824 5824 5823 5823 5823 5823 5823 5822 5821 5822 5822 5822 5822 5822 5822 5822 5822 5822 5821
5795 5798 5802 5804 5807 5810 5812 5815 5817 5817 5818 5818 5819 5821 5820 5821 5821 5821 5820 5820 5820 5820 5820 5820 5820 5819 5819 5819 5819 5819 5819 5818 5818 5816 5814 5814 5814 5815 5815 5815 5814 5814 5813 5813
5786 5789 5792 5796 5800 5801 5807 5808 5810 5811 5812 5813 5813 5814 5815 5816 5816 5816 5815 5816 5816 5816 5816 5816 5815 5815 5815 5814 5814 5813 5813 5812 5812 5811 5810 5809 5807 5808 5808 5808 5807 5806 5804 5804
5776 5779 5783 5786 5789 5792 5798 5800 5802 5804 5805 5807 5808 5808 5808 5809 5810 5810 5811 5811 5811 5811 5811 5811 5811 5810 5810 5809 5808 5808 5807 5806 5805 5804 5803 5803 5802 5802 5801 5801 5799 5797 5796 5796
5767 5770 5773 5777 5780 5784 5790 5792 5794 5797 5798 5800 5801 5802 5803 5804 5805 5806 5806 5806 5806 5806 5806 5806 5806 5805 5804 5803 5803 5802 5801 5800 5799 5797 5796 5795 5794 5793 5792 5791 5790 5789 5788 5787
5759 5761 5764 5767 5770 5775 5781 5785 5788 5791 5794 5794 5795 5796 5797 5799 5800 5800 5800 5800 5800 5801 5801 5801 5800 5799 5798 5797 5797 5796 5795 5793 5792 5791 5789 5788 5786 5785 5784 5782 5781 5780 5779 5777
5751 5754 5757 5760 5763 5770 5774 5777 5781 5784 5786 5787 5788 5789 5791 5793 5794 5794 5794 5794 5794 5795 5795 5795 5794 5794 5793 5792 5791 5790 5788 5787 5786 5784 5782 5781 5779 5778 5776 5774 5772 5771 5770 5768
5745 5749 5751 5755 5759 5762 5766 5769 5773 5776 5778 5780 5781 5783 5785 5786 5787 5788 5788 5788 5788 5789 5789 5789 5788 5787 5786 5785 5784 5782 5781 5780 5778 5777 5775 5773 5771 5769 5767 5766 5764 5762 5761 5759
5741 5743 5746 5749 5752 5756 5759 5762 5766 5769 5771 5773 5775 5778 5779 5780 5781 5782 5782 5783 5783 5783 5783 5782 5781 5780 5779 5778 5777 5775 5774 5772 5770 5768 5766 5765 5763 5761 5759 5757 5755 5753 5751 5750
5738 5740 5742 5744 5747 5751 5754 5756 5758 5761 5765 5767 5769 5770 5771 5773 5775 5776 5777 5777 5777 5777 5776 5776 5775 5773 5772 5770 5768 5767 5765 5763 5761 5759 5757 5756 5754 5752 5749 5747 5745 5743 5741 5739
5735 5737 5740 5741 5744 5746 5748 5751 5753 5756 5760 5762 5763 5764 5766 5767 5768 5769 5770 5770 5770 5770 5769 5768 5767 5765 5764 5762 5760 5759 5757 5755 5753 5750 5748 5746 5744 5742 5739 5737 5734 5732 5730 5727